SCP
0 0 0 0 0 0 0 0 0 0 -0 0 0 0 0 0 0 0 -0 -0 0 0 0 0 0 0 0 0 0 0 0 0 0 0 0 0 0 0
0 0 0 0 0 0 0 0 0 0 0 0 0 0 0 0 0 0 -0 -0 0 0 0 0 0 0 0 0 0 0 0 0 0 0 0 0 0 0
0 0 0 0 0 0 0 0 0 0 0 0 0 0 0 0 0 0 -0 -0 0 0 0 0 0 0 0 0 0 0 0 0 0 0 0 0 0 0
0 0 0 0 0 0 0 0 0 0 0 0 0 0 0 0 0 0 0 -0 0 0 0 0 0 0 0 0 0 0 0 0 0 0 0 0 -0 0
0 0 0 0 0 0 0 0 0 0 0 0 0 0 0 0 0 0 -0 -0 0 0 0 0 0 0 0 0 0 0 0 0 0 0 0 0 0 0
0 0 0 0 0 0 0 0 0 0 0 0 0 0 0 0 -0 -0 -0 -0 0 0 0 0 0 0 0 0 0 0 0 0 0 0 0 0 0 0
0 0 0 0 0 0 0 0 0 0 0 0 0 0 -0 0 0 0 0 0 0 1 1 0 0 0 0 0 0 0 0 0 0 0 0 0 0 0
0 0 0 0 0 0 0 -0 -0 0 -0 -0 0 0 0 0 0 0 0 0 1 1 0 0 0 0 0 0 0 0 0 0 0 0 0 0 0 0
0 0 0 0 0 0 -0 -0 -0 -0 -0 -0 -0 0 0 0 0 0 0 0 0 1 0 0 0 0 0 0 0 0 0 0 0 0 0 0 0 0
0 0 0 0 0 -0 0 0 -0 -0 -0 0 -0 0 0 0 0 0 0 0 0 0 0 0 0 0 0 0 0 0 0 0 0 0 0 0 0 0
0 0 0 0 0 -0 0 0 0 -0 -0 -0 -0 0 0 0 0 0 0 0 0 0 0 0 0 0 0 0 0 0 0 0 0 0 0 0 0 0
0 0 0 0 -0 -0 0 -0 -0 -0 -0 -0 -0 0 0 0 0 0 0 0 0 0 0 0 0 0 0 0 0 0 0 0 0 0 0 0 0 0
0 0 0 -0 -0 -0 -0 -0 0 -0 0 0 0 0 0 0 0 0 0 0 0 0 0 0 0 0 0 0 0 0 0 0 0 0 0 0 0 0
0 0 0 -0 -0 -0 -0 0 -0 -0 0 0 0 0 0 0 0 0 0 0 0 0 0 0 0 0 0 0 0 0 0 0 0 0 0 0 0 0
0 0 -0 -0 -0 -0 -0 0 0 0 0 0 0 0 0 0 0 0 0 0 0 0 0 0 0 0 0 0 0 0 0 0 0 0 0 0 0 0
0 0 0 -0 -0 -0 0 -0 0 0 0 0 0 0 0 0 0 0 0 0 0 0 0 0 0 0 0 0 0 0 0 0 0 0 0 0 0 0
0 0 -0 -0 -0 -0 0 0 0 0 0 0 0 0 0 0 0 0 0 0 0 0 0 0 0 0 0 0 0 0 0 0 0 0 0 0 0 0
0 0 -0 0 0 0 0 0 0 0 0 0 0 0 0 0 0 0 0 0 0 0 0 0 0 0 0 0 0 0 0 0 0 0 0 0 0 0
0 0 -0 0 0 0 -0 0 0 0 0 0 0 0 0 0 0 0 0 0 0 0 0 0 0 0 0 0 0 0 0 0 0 0 0 0 0 0
0 0 -0 0 0 0 -0 0 0 0 0 0 0 0 0 0 0 0 0 0 0 0 0 0 0 0 0 0 0 0 0 0 0 0 0 0 0 0
0 0 -0 0 0 0 -0 -0 0 0 0 0 0 0 0 0 0 0 0 0 0 0 0 0 0 0 0 0 0 0 0 0 0 0 0 0 0 0
0 0 -0 0 0 0 -0 -0 0 0 0 0 0 0 0 0 0 0 0 0 0 0 0 0 0 0 0 0 0 0 0 0 0 0 0 0 0 0
0 -0 0 0 0 0 -0 -0 0 0 0 0 0 0 0 0 0 0 0 0 0 0 0 0 0 0 0 0 0 0 0 0 0 0 0 0 0 0
Wind_Speed_500mb
55 53 52 53 54 56 60 64 70 91 98 85 92 85 80 70 59 57 54 64 63 56 85 92 88 76 62 61 55 54 48 46 41 31 19 18 9 3
51 50 53 56 55 56 60 63 72 80 102 91 100 91 74 72 63 52 57 62 77 62 83 95 90 78 67 65 60 56 51 47 42 31 22 19 8 3
54 54 54 51 53 58 60 64 75 78 83 107 101 83 78 74 45 45 52 63 66 73 78 88 91 80 72 67 63 60 54 50 41 31 25 17 9 3
51 53 53 53 58 59 63 69 76 77 84 90 100 93 90 58 46 47 52 65 66 77 87 90 94 81 74 70 66 63 58 50 42 32 26 18 10 4
48 50 54 53 58 61 63 72 76 78 79 84 94 86 84 53 48 48 63 74 59 69 88 86 93 83 75 73 69 65 59 48 42 34 27 19 10 4
46 50 53 55 58 62 65 71 76 82 90 89 91 76 46 44 49 46 73 57 43 68 92 92 93 83 74 72 70 64 55 48 43 35 28 20 11 3
51 50 56 55 56 58 62 64 80 82 83 92 84 50 35 50 45 59 46 35 39 84 86 89 96 87 77 69 68 61 55 49 43 36 29 21 12 3
52 59 68 71 69 63 63 65 70 73 85 83 80 53 36 34 33 56 43 30 45 79 94 92 97 92 85 76 67 63 55 50 44 37 31 22 12 5
61 66 60 56 54 56 62 67 67 71 72 68 49 38 43 29 21 61 53 27 53 90 94 95 100 95 88 76 65 61 55 49 45 38 31 23 14 6
64 50 53 55 56 56 59 66 70 72 69 60 52 38 27 30 22 54 37 26 79 99 101 78 99 96 82 72 63 60 54 49 45 40 33 24 17 9
47 50 52 58 55 52 55 69 75 68 61 47 53 33 21 25 21 27 30 40 96 99 89 85 100 91 79 75 65 60 55 50 46 42 34 26 19 11
48 48 53 49 51 51 54 65 70 61 68 53 44 22 33 33 28 30 34 75 84 85 90 90 94 91 74 81 70 66 58 52 47 44 37 29 22 14
41 50 56 58 54 54 51 55 56 61 56 46 26 39 34 28 34 54 53 78 87 65 91 98 99 92 80 89 79 72 67 60 55 50 42 33 26 17
42 50 60 62 54 52 51 53 51 50 40 38 26 47 39 40 31 58 63 68 86 83 88 84 106 96 86 88 91 80 72 63 57 52 45 39 32 23
41 49 63 53 54 59 44 54 48 48 40 33 29 18 45 49 37 50 55 63 80 67 73 74 78 108 92 94 103 93 80 72 61 55 49 41 32 23
40 52 55 49 49 53 47 56 50 53 39 35 32 36 39 49 42 47 54 71 79 68 69 81 72 78 95 75 93 95 88 79 74 63 53 45 38 30
39 50 53 50 53 55 55 60 54 60 47 35 24 35 49 52 45 58 68 77 81 79 76 78 68 64 85 86 76 91 90 83 71 66 63 52 44 34
37 48 50 47 52 54 54 64 60 64 52 32 14 34 60 56 59 72 74 88 84 82 76 67 71 67 72 75 71 76 87 86 76 66 65 56 47 39
36 44 43 43 51 53 51 58 65 63 53 28 15 23 61 61 64 91 85 91 87 81 74 67 80 81 90 80 88 76 73 84 77 66 70 60 50 41
34 39 36 37 45 50 53 58 62 59 57 40 18 21 54 60 68 90 89 91 87 86 78 79 85 91 94 93 93 92 82 77 84 79 74 65 53 46
30 33 28 35 41 45 48 56 58 51 61 47 33 20 42 64 73 78 93 96 93 87 87 88 87 79 80 71 68 69 75 64 58 76 70 71 64 54
29 33 35 37 41 41 46 54 57 47 64 61 44 12 47 63 87 96 92 98 99 88 87 76 75 78 77 76 72 77 78 70 63 71 68 70 65 62
34 36 35 39 39 40 46 57 57 48 60 67 54 10 45 62 62 98 104 95 96 92 85 78 75 77 77 76 69 71 75 77 75 78 73 74 57 54
Wind_Direction_500mb
301 301 299 298 296 297 296 295 295 293 297 302 299 307 298 294 285 275 262 259 248 228 211 210 210 204 201 202 202 207 208 210 208 208 203 221 218 264
303 301 298 297 295 297 298 297 298 290 287 295 300 297 296 291 284 257 260 256 242 216 209 207 206 202 197 200 201 203 207 210 208 203 201 212 203 241
302 301 299 298 297 300 300 299 300 296 280 293 298 304 298 290 272 251 242 224 239 218 211 200 204 200 194 196 198 198 206 212 201 197 200 199 193 232
302 301 304 303 301 303 303 303 303 302 283 283 297 302 296 281 266 253 237 221 247 216 203 203 201 196 192 195 199 197 207 206 197 195 197 191 191 224
305 307 308 307 307 307 309 306 308 304 293 293 294 294 283 267 262 234 212 214 246 204 199 198 197 194 191 194 195 199 208 195 194 192 192 189 188 231
307 307 308 307 307 307 309 309 307 300 301 300 299 289 263 256 247 226 200 227 233 196 198 197 194 192 190 194 194 197 201 191 193 189 190 188 190 222
305 302 301 304 304 303 302 304 304 304 306 307 307 274 247 244 243 205 209 229 192 188 191 191 192 187 189 196 195 193 193 191 193 187 187 191 190 211
303 303 303 306 301 300 302 302 301 302 303 303 305 240 236 236 238 200 228 240 189 188 186 190 190 185 187 195 195 190 191 190 192 186 189 190 191 215
302 309 311 312 312 311 311 314 312 315 319 314 304 291 247 227 212 195 228 230 184 184 182 173 186 185 188 193 193 191 190 189 191 189 190 192 192 218
309 309 309 316 319 322 320 316 319 320 326 328 315 288 250 215 199 202 218 238 165 170 175 159 181 186 184 192 193 193 191 189 191 193 190 194 196 212
316 315 320 318 319 321 319 321 321 315 327 310 316 246 227 220 209 218 224 189 155 163 179 162 178 178 182 191 191 194 192 190 193 195 192 195 199 210
317 317 319 316 321 321 321 321 318 325 324 320 338 221 197 207 208 205 187 160 159 156 175 168 173 176 174 189 190 190 192 193 195 198 195 197 203 207
313 320 321 322 325 323 322 320 325 319 311 317 295 221 216 204 203 189 180 181 174 169 170 183 177 181 179 179 187 192 193 193 194 198 197 198 203 205
321 322 320 324 323 324 321 331 328 328 316 313 287 189 201 211 219 189 178 178 178 179 173 190 182 184 184 185 184 189 193 198 200 199 198 199 202 204
316 319 322 323 328 329 328 334 338 341 328 307 279 270 219 228 214 194 175 182 185 194 197 196 201 188 194 191 187 189 190 196 199 202 203 203 205 206
323 326 326 324 326 331 338 338 344 348 331 312 291 236 225 221 196 188 165 181 190 189 199 200 204 205 195 205 198 193 198 194 198 199 202 205 204 202
317 326 327 328 333 339 341 336 345 350 341 326 278 219 219 219 201 187 180 185 188 185 188 195 205 204 207 207 202 205 201 203 205 199 200 202 204 204
312 324 323 326 334 340 341 334 344 347 350 333 234 204 210 209 196 188 179 182 190 192 189 187 194 190 194 202 214 209 206 207 207 204 205 204 205 204
307 318 320 325 333 335 340 331 339 344 352 347 326 174 203 203 201 181 176 178 188 194 189 192 195 192 188 189 201 208 216 210 209 207 208 207 207 208
301 318 321 325 333 335 337 328 339 343 357 354 346 204 195 201 193 175 178 184 190 190 193 197 200 198 195 193 196 199 205 213 209 209 205 204 207 211
313 323 320 326 331 333 333 325 338 340 353 356 349 204 199 208 197 177 180 189 191 198 196 200 201 200 197 202 199 196 204 203 219 218 209 205 206 211
317 321 321 322 327 329 329 327 335 339 347 357 359 212 203 214 180 187 181 183 194 201 201 199 198 198 201 205 205 204 199 198 199 209 215 211 210 212
310 314 316 316 325 329 330 328 334 338 344 355 358 324 203 207 186 181 184 189 195 197 197 192 194 196 201 206 207 203 200 198 199 195 203 209 215 220
Wind_Speed_850mb
55 53 52 53 54 56 60 64 70 91 98 85 92 85 80 70 59 57 54 64 63 56 85 92 88 76 62 61 55 54 48 46 41 31 19 18 9 3
51 50 53 56 55 56 60 63 72 80 102 91 100 91 74 72 63 52 57 62 77 62 83 95 90 78 67 65 60 56 51 47 42 31 22 19 8 3
54 54 54 51 53 58 60 64 75 78 83 107 101 83 78 74 45 45 52 63 66 73 78 88 91 80 72 67 63 60 54 50 41 31 25 17 9 3
51 53 53 53 58 59 63 69 76 77 84 90 100 93 90 58 46 47 52 65 66 77 87 90 94 81 74 70 66 63 58 50 42 32 26 18 10 4
48 50 54 53 58 61 63 72 76 78 79 84 94 86 84 53 48 48 63 74 59 69 88 86 93 83 75 73 69 65 59 48 42 34 27 19 10 4
46 50 53 55 58 62 65 71 76 82 90 89 91 76 46 44 49 46 73 57 43 68 92 92 93 83 74 72 70 64 55 48 43 35 28 20 11 3
51 50 56 55 56 58 62 64 80 82 83 92 84 50 35 50 45 59 46 35 39 84 86 89 96 87 77 69 68 61 55 49 43 36 29 21 12 3
52 59 68 71 69 63 63 65 70 73 85 83 80 53 36 34 33 56 43 30 45 79 94 92 97 92 85 76 67 63 55 50 44 37 31 22 12 5
61 66 60 56 54 56 62 67 67 71 72 68 49 38 43 29 21 61 53 27 53 90 94 95 100 95 88 76 65 61 55 49 45 38 31 23 14 6
64 50 53 55 56 56 59 66 70 72 69 60 52 38 27 30 22 54 37 26 79 99 101 78 99 96 82 72 63 60 54 49 45 40 33 24 17 9
47 50 52 58 55 52 55 69 75 68 61 47 53 33 21 25 21 27 30 40 96 99 89 85 100 91 79 75 65 60 55 50 46 42 34 26 19 11
48 48 53 49 51 51 54 65 70 61 68 53 44 22 33 33 28 30 34 75 84 85 90 90 94 91 74 81 70 66 58 52 47 44 37 29 22 14
41 50 56 58 54 54 51 55 56 61 56 46 26 39 34 28 34 54 53 78 87 65 91 98 99 92 80 89 79 72 67 60 55 50 42 33 26 17
42 50 60 62 54 52 51 53 51 50 40 38 26 47 39 40 31 58 63 68 86 83 88 84 106 96 86 88 91 80 72 63 57 52 45 39 32 23
41 49 63 53 54 59 44 54 48 48 40 33 29 18 45 49 37 50 55 63 80 67 73 74 78 108 92 94 103 93 80 72 61 55 49 41 32 23
40 52 55 49 49 53 47 56 50 53 39 35 32 36 39 49 42 47 54 71 79 68 69 81 72 78 95 75 93 95 88 79 74 63 53 45 38 30
39 50 53 50 53 55 55 60 54 60 47 35 24 35 49 52 45 58 68 77 81 79 76 78 68 64 85 86 76 91 90 83 71 66 63 52 44 34
37 48 50 47 52 54 54 64 60 64 52 32 14 34 60 56 59 72 74 88 84 82 76 67 71 67 72 75 71 76 87 86 76 66 65 56 47 39
36 44 43 43 51 53 51 58 65 63 53 28 15 23 61 61 64 91 85 91 87 81 74 67 80 81 90 80 88 76 73 84 77 66 70 60 50 41
34 39 36 37 45 50 53 58 62 59 57 40 18 21 54 60 68 90 89 91 87 86 78 79 85 91 94 93 93 92 82 77 84 79 74 65 53 46
30 33 28 35 41 45 48 56 58 51 61 47 33 20 42 64 73 78 93 96 93 87 87 88 87 79 80 71 68 69 75 64 58 76 70 71 64 54
29 33 35 37 41 41 46 54 57 47 64 61 44 12 47 63 87 96 92 98 99 88 87 76 75 78 77 76 72 77 78 70 63 71 68 70 65 62
34 36 35 39 39 40 46 57 57 48 60 67 54 10 45 62 62 98 104 95 96 92 85 78 75 77 77 76 69 71 75 77 75 78 73 74 57 54
Wind_Direction_850mb
301 301 299 298 296 297 296 295 295 293 297 302 299 307 298 294 285 275 262 259 248 228 211 210 210 204 201 202 202 207 208 210 208 208 203 221 218 264
303 301 298 297 295 297 298 297 298 290 287 295 300 297 296 291 284 257 260 256 242 216 209 207 206 202 197 200 201 203 207 210 208 203 201 212 203 241
302 301 299 298 297 300 300 299 300 296 280 293 298 304 298 290 272 251 242 224 239 218 211 200 204 200 194 196 198 198 206 212 201 197 200 199 193 232
302 301 304 303 301 303 303 303 303 302 283 283 297 302 296 281 266 253 237 221 247 216 203 203 201 196 192 195 199 197 207 206 197 195 197 191 191 224
305 307 308 307 307 307 309 306 308 304 293 293 294 294 283 267 262 234 212 214 246 204 199 198 197 194 191 194 195 199 208 195 194 192 192 189 188 231
307 307 308 307 307 307 309 309 307 300 301 300 299 289 263 256 247 226 200 227 233 196 198 197 194 192 190 194 194 197 201 191 193 189 190 188 190 222
305 302 301 304 304 303 302 304 304 304 306 307 307 274 247 244 243 205 209 229 192 188 191 191 192 187 189 196 195 193 193 191 193 187 187 191 190 211
303 303 303 306 301 300 302 302 301 302 303 303 305 240 236 236 238 200 228 240 189 188 186 190 190 185 187 195 195 190 191 190 192 186 189 190 191 215
302 309 311 312 312 311 311 314 312 315 319 314 304 291 247 227 212 195 228 230 184 184 182 173 186 185 188 193 193 191 190 189 191 189 190 192 192 218
309 309 309 316 319 322 320 316 319 320 326 328 315 288 250 215 199 202 218 238 165 170 175 159 181 186 184 192 193 193 191 189 191 193 190 194 196 212
316 315 320 318 319 321 319 321 321 315 327 310 316 246 227 220 209 218 224 189 155 163 179 162 178 178 182 191 191 194 192 190 193 195 192 195 199 210
317 317 319 316 321 321 321 321 318 325 324 320 338 221 197 207 208 205 187 160 159 156 175 168 173 176 174 189 190 190 192 193 195 198 195 197 203 207
313 320 321 322 325 323 322 320 325 319 311 317 295 221 216 204 203 189 180 181 174 169 170 183 177 181 179 179 187 192 193 193 194 198 197 198 203 205
321 322 320 324 323 324 321 331 328 328 316 313 287 189 201 211 219 189 178 178 178 179 173 190 182 184 184 185 184 189 193 198 200 199 198 199 202 204
316 319 322 323 328 329 328 334 338 341 328 307 279 270 219 228 214 194 175 182 185 194 197 196 201 188 194 191 187 189 190 196 199 202 203 203 205 206
323 326 326 324 326 331 338 338 344 348 331 312 291 236 225 221 196 188 165 181 190 189 199 200 204 205 195 205 198 193 198 194 198 199 202 205 204 202
317 326 327 328 333 339 341 336 345 350 341 326 278 219 219 219 201 187 180 185 188 185 188 195 205 204 207 207 202 205 201 203 205 199 200 202 204 204
312 324 323 326 334 340 341 334 344 347 350 333 234 204 210 209 196 188 179 182 190 192 189 187 194 190 194 202 214 209 206 207 207 204 205 204 205 204
307 318 320 325 333 335 340 331 339 344 352 347 326 174 203 203 201 181 176 178 188 194 189 192 195 192 188 189 201 208 216 210 209 207 208 207 207 208
301 318 321 325 333 335 337 328 339 343 357 354 346 204 195 201 193 175 178 184 190 190 193 197 200 198 195 193 196 199 205 213 209 209 205 204 207 211
313 323 320 326 331 333 333 325 338 340 353 356 349 204 199 208 197 177 180 189 191 198 196 200 201 200 197 202 199 196 204 203 219 218 209 205 206 211
317 321 321 322 327 329 329 327 335 339 347 357 359 212 203 214 180 187 181 183 194 201 201 199 198 198 201 205 205 204 199 198 199 209 215 211 210 212
310 314 316 316 325 329 330 328 334 338 344 355 358 324 203 207 186 181 184 189 195 197 197 192 194 196 201 206 207 203 200 198 199 195 203 209 215 220